Location: Schommer Observatory
(40.5200°N, 74.4500°W)
Time: 12:03:21
(UTC-04:00)

ISS - Pass Details

Date: 21 May 2018
Orbit: 402 x 407 km, 51.6° (Epoch: 23 May)

Event Time Altitude Azimuth Distance (km) Brightness Sun altitude
Rises 00:55:52 0° 299° (WNW) 2,318 0.4 -29.3°
Reaches altitude 10° 00:59:02 10° 332° (NNW) 1,459 -0.3 -29.3°
Maximum altitude 01:00:22 12° 357° (N) 1,345 -0.3 -29.3°
Drops below altitude 10° 01:01:43 10° 21° (NNE) 1,458 -0.2 -29.3°
Sets 01:04:53 0° 55° (NE) 2,318 0.5 -29.3°
